Location: Gwatt
(46.7204°N, 7.6223°E)
Time: 06:43:10
(UTC+00:00)

ARGOS - Pass Details

Date: 18 September 2020
Orbit: 821 x 834 km, 98.4° (Epoch: 23 October)

Event Time Altitude Azimuth Distance (km) Brightness Sun altitude
Rises 19:13:49 0° 179° (S) 3,339 6.1 -17.4°
Reaches altitude 10° 19:16:13 10° 185° (S) 2,412 5.4 -17.8°
Maximum altitude 19:21:24 50° 261° (W) 1,037 4.0 -18.6°
Drops below altitude 10° 19:26:39 10° 336° (NNW) 2,435 6.3 -19.4°
Sets 19:29:05 0° 342° (NNW) 3,374 7.0 -19.8°
